Probability
11 14 20 23 16 4 0 0 0 0 0 0 0 0 1 0 0 0 0 0 0 0 0 0 0 0 0 0 0 0 0 0 0 0 0 0 1 1 1 3 4 4 4 4 4 2 1 1 0
13 20 25 20 9 2 0 0 0 0 0 0 0 0 1 0 0 0 0 0 0 0 0 0 0 0 0 0 0 0 0 0 0 0 0 0 1 1 3 4 4 5 5 4 3 2 1 0 0
21 27 26 14 4 0 0 0 0 0 0 0 0 0 0 0 0 0 0 0 0 0 0 0 0 0 0 0 0 0 0 0 0 0 1 1 1 1 3 5 5 5 4 4 3 1 0 0 0
28 27 17 6 1 0 0 0 0 0 0 0 0 0 0 0 0 0 0 0 0 0 0 0 0 0 0 0 0 0 1 1 0 1 2 1 0 0 2 3 3 2 2 3 2 1 0 0 0
27 18 8 2 0 0 0 0 0 0 0 0 0 0 0 0 0 0 0 0 0 1 1 1 1 1 1 0 0 0 1 2 1 1 2 2 1 1 1 1 1 1 2 2 1 0 0 0 0
18 11 3 0 0 0 0 0 0 0 0 1 1 0 0 0 0 0 0 0 1 2 3 3 2 3 4 3 1 1 2 3 2 1 2 2 2 2 2 2 2 3 3 2 1 0 0 0 1
11 7 2 0 0 0 0 0 0 0 0 1 1 0 0 1 2 2 1 1 1 2 3 3 3 5 7 6 4 3 3 3 2 1 1 2 2 3 3 3 3 2 2 1 0 0 0 0 1
6 4 1 0 0 0 0 0 0 0 0 1 1 0 0 1 3 3 2 1 1 1 1 1 1 3 5 6 7 7 6 6 5 4 4 5 5 4 4 2 1 1 1 0 0 0 0 0 1
3 1 0 0 0 0 0 0 0 0 0 0 0 1 1 1 3 3 2 1 0 1 1 1 1 1 3 5 8 9 10 10 10 8 8 8 6 4 3 2 1 0 0 0 0 0 0 0 0
1 0 0 0 0 0 0 0 0 0 0 0 1 2 2 1 2 2 2 1 1 2 2 3 3 3 3 4 6 7 9 10 10 9 8 7 4 2 1 1 2 1 1 0 1 1 0 0 0
0 0 0 0 0 0 0 0 0 0 1 1 2 3 3 1 1 1 2 2 1 2 3 4 5 6 5 4 4 4 6 7 8 7 6 4 3 2 1 1 2 2 1 1 2 2 1 0 0
0 0 0 0 0 0 0 0 0 0 1 2 2 3 3 2 1 1 3 2 1 1 3 6 8 8 7 6 5 4 4 5 6 6 6 5 4 3 1 1 1 1 1 0 1 1 1 0 0
0 0 0 0 0 0 0 0 0 0 1 1 1 2 3 3 3 3 4 3 1 0 3 7 11 11 10 8 6 4 5 6 6 7 8 6 3 2 2 1 1 0 0 0 0 0 1 1 1
0 0 0 0 0 0 0 0 0 1 1 1 1 2 2 3 4 5 5 4 3 2 5 9 12 13 12 10 7 5 4 6 7 9 10 6 2 1 2 2 1 0 0 0 0 0 1 2 2
0 0 0 0 0 0 0 0 0 1 2 2 2 3 3 3 4 6 7 7 6 7 10 12 12 13 15 13 10 7 5 5 7 8 8 5 2 0 1 2 1 0 0 0 0 0 2 3 3
0 0 0 0 0 0 0 1 1 1 1 1 1 3 4 4 5 7 9 8 8 12 17 16 13 13 15 15 13 10 8 6 5 6 5 3 1 0 0 1 1 1 1 1 0 0 1 2 2
0 0 0 0 0 0 0 1 1 1 0 1 2 3 4 5 6 8 10 9 9 14 21 21 17 15 15 15 15 13 10 8 6 5 4 3 1 0 0 1 2 2 2 1 0 0 0 1 2
0 0 0 0 0 0 0 0 1 1 1 2 4 6 7 7 8 10 11 9 10 15 21 22 19 17 17 17 17 15 12 10 8 7 7 6 4 3 2 1 1 1 1 1 0 0 0 1 2
0 0 0 0 0 0 0 1 2 2 3 5 6 10 12 11 11 13 13 10 10 15 19 21 19 18 20 21 22 19 15 11 9 8 10 10 9 7 4 2 1 0 0 0 0 0 0 1 2
0 0 0 0 0 0 0 2 3 3 4 7 9 12 15 16 16 18 19 15 13 16 18 20 20 19 20 23 23 20 16 11 8 8 12 13 12 9 5 2 1 1 1 2 2 3 3 2 2
0 0 0 0 0 0 0 2 5 4 4 7 9 11 14 17 19 20 21 19 18 19 20 21 22 21 21 21 21 19 16 11 8 11 16 17 13 9 6 3 3 3 4 5 6 7 7 6 4
0 0 0 0 0 0 0 2 5 6 6 7 9 10 12 17 21 21 22 23 24 23 24 26 27 26 23 22 21 19 16 11 11 16 21 21 15 10 7 6 5 5 5 6 8 9 9 7 6
0 0 0 1 1 1 0 1 4 7 8 9 10 11 12 16 20 22 25 29 28 24 26 33 35 31 27 25 23 21 17 14 14 19 24 24 18 12 10 9 8 7 6 6 7 9 9 8 7
0 0 1 2 2 1 1 1 4 7 9 10 11 11 12 14 19 24 30 34 29 24 26 35 42 40 33 28 25 24 23 21 19 21 23 22 20 17 15 12 9 8 7 6 7 8 8 9 9
0 0 1 1 1 1 1 3 6 8 9 10 11 12 12 13 19 25 32 35 30 26 28 38 48 47 39 31 28 28 27 25 24 24 24 22 20 19 18 14 10 8 7 6 7 7 9 9 10
0 0 0 0 0 0 1 4 6 8 9 8 10 13 13 14 19 25 31 33 31 29 32 42 52 52 43 35 33 31 28 25 25 26 25 23 21 20 18 15 11 8 7 6 7 8 9 10 10
0 0 0 0 0 0 1 4 7 7 8 7 9 12 14 16 19 23 27 29 28 30 36 45 54 55 47 40 36 35 31 27 25 24 24 24 23 22 20 16 12 10 8 8 9 9 10 11 11
0 0 0 0 0 0 2 5 7 8 8 9 9 11 16 20 21 21 22 24 25 29 36 42 50 54 48 41 36 34 34 31 26 23 23 26 26 25 24 19 15 14 14 13 11 11 11 13 14
0 0 0 0 1 0 2 5 8 9 11 10 9 11 18 23 24 22 20 22 25 29 33 38 44 47 45 39 32 30 33 33 30 28 27 28 30 31 30 25 22 22 22 19 15 15 15 15 16
0 0 0 0 1 0 2 5 9 11 12 11 9 11 18 24 26 25 22 24 27 30 33 37 41 42 40 37 30 27 31 33 32 32 31 30 32 34 34 31 27 27 26 22 19 19 19 18 16
Wind_Speed
9 10 9 6 4 4 13 14 13 13 15 14 15 16 18 16 12 10 5 7 8 9 9 11 12 12 13 13 13 14 14 15 15 15 15 15 15 15 16 16 16 15 16 16 15 15 15 14 13
9 11 8 5 1 8 13 13 13 13 13 13 16 18 18 17 14 10 6 7 8 10 9 11 12 12 13 13 13 14 14 14 14 14 14 14 14 14 15 15 15 14 14 14 14 14 13 13 12
11 14 7 1 8 11 13 12 11 11 11 13 16 16 14 12 13 9 7 8 9 11 11 12 13 12 12 13 13 13 13 13 13 13 13 13 14 14 14 14 13 13 13 13 13 12 12 11 10
7 7 3 6 13 14 13 11 10 11 12 12 14 13 14 13 11 9 9 9 10 12 13 13 13 12 12 13 12 12 12 12 12 13 12 12 13 13 13 12 12 12 12 11 11 11 10 9 8
8 4 5 9 15 14 12 11 11 12 13 15 17 16 15 13 12 10 9 9 12 14 14 13 13 13 12 12 12 11 11 11 12 12 12 11 11 12 12 11 11 10 10 10 10 9 9 8 7
5 2 4 9 13 13 12 12 12 13 13 15 16 16 12 10 9 8 9 9 11 13 14 13 14 13 13 12 12 11 11 11 11 11 10 10 10 10 10 10 9 9 9 8 8 8 7 6 5
4 2 7 11 12 12 11 11 12 12 12 12 14 14 11 9 7 8 8 9 10 12 12 12 11 11 12 13 12 11 11 10 9 9 9 9 9 9 9 8 8 8 7 7 6 6 6 5 3
1 3 8 10 13 14 12 12 12 13 12 11 11 11 11 9 9 8 9 9 9 10 10 11 10 9 9 10 11 11 10 9 8 7 7 7 7 8 8 8 7 7 7 6 6 5 5 4 4
1 4 8 10 12 14 12 13 14 13 12 12 13 15 15 13 10 9 9 9 8 9 8 9 9 7 8 9 10 10 9 7 7 6 6 4 3 4 6 8 8 7 6 5 5 5 5 5 6
5 7 11 11 13 13 12 12 12 12 13 13 15 16 15 12 10 9 8 9 8 8 7 7 7 6 6 6 6 5 5 5 3 3 3 2 2 2 6 8 7 6 5 5 6 7 7 6 4
8 10 11 12 13 13 12 12 11 12 12 13 14 14 13 11 9 8 8 9 8 6 7 7 6 4 5 4 4 2 3 3 3 3 2 2 2 2 4 3 4 4 5 4 5 6 4 4 3
9 10 11 11 11 12 13 12 12 13 14 15 14 13 12 11 9 8 8 8 7 6 7 7 6 4 4 3 2 3 3 2 2 2 2 2 1 1 2 1 1 2 1 1 1 2 2 1 1
9 10 10 10 11 11 12 13 14 14 15 15 14 12 11 10 9 8 8 8 7 6 7 7 6 5 3 2 1 2 3 2 3 2 2 2 1 2 1 1 0 0 1 1 0 0 0 0 0
7 8 10 10 11 10 12 12 13 14 14 14 13 11 10 10 9 9 8 8 7 6 7 6 5 5 3 2 1 1 2 2 3 2 3 2 2 2 1 1 1 1 1 1 0 0 0 0 0
6 8 9 9 10 10 10 11 13 14 14 13 12 11 10 10 9 9 9 8 7 7 7 5 6 5 3 2 0 1 1 3 3 3 3 2 2 2 1 1 1 1 1 1 0 0 0 1 1
7 5 6 9 9 10 7 10 12 13 14 13 11 11 10 9 9 9 10 8 7 7 6 4 5 6 4 2 1 1 1 2 2 2 2 2 1 1 1 1 1 1 1 0 0 0 1 1 1
7 7 6 8 9 9 7 11 13 14 14 13 11 11 11 11 10 9 10 9 8 8 6 4 4 5 4 3 2 1 2 2 2 2 2 1 0 1 1 1 1 1 1 1 1 2 1 1 1
6 5 6 7 8 8 8 12 13 14 14 13 13 12 11 11 11 11 10 10 9 8 6 5 5 5 3 2 2 1 1 2 2 2 2 1 0 1 1 0 1 1 1 1 2 1 1 1 1
5 2 2 5 6 4 7 11 13 13 13 13 13 13 12 12 12 12 11 10 10 8 7 6 5 4 3 2 2 2 1 1 2 2 3 2 1 1 1 1 1 1 1 1 2 2 1 1 0
5 3 3 5 7 4 4 7 11 12 13 13 13 12 13 14 13 12 11 10 10 9 8 6 5 5 4 3 2 2 2 2 2 2 3 2 1 0 0 1 1 1 1 1 1 1 1 2 1
7 6 5 4 5 4 2 3 7 12 11 12 13 14 14 14 15 14 12 11 11 10 9 7 6 6 4 4 2 2 2 1 1 2 2 2 1 1 1 1 1 1 1 1 1 1 1 1 2
7 6 7 6 5 4 4 3 7 10 12 12 12 12 13 14 15 15 14 12 11 11 10 8 7 6 5 4 3 3 2 2 2 2 2 2 2 1 1 1 0 1 1 1 1 1 1 1 2
7 7 9 9 6 5 6 6 6 9 10 12 12 12 12 14 15 15 15 13 11 11 11 9 8 6 5 4 3 2 2 1 1 2 3 3 2 1 1 1 0 0 1 1 1 1 1 1 2
8 8 10 9 7 7 7 6 5 7 9 10 11 11 11 13 14 14 14 13 11 11 10 11 9 7 6 5 4 3 2 1 1 1 1 2 2 2 2 2 1 1 0 1 1 1 1 1 2
9 7 6 6 6 7 6 5 3 6 8 9 10 11 11 12 13 14 14 14 12 11 10 10 10 8 7 6 5 4 3 2 2 2 2 2 2 2 2 1 1 1 1 1 0 1 1 1 2
10 11 8 7 6 5 4 2 3 6 6 8 10 10 11 11 12 13 14 14 13 12 10 10 10 9 8 7 5 4 4 3 2 3 2 1 1 2 3 2 1 1 1 1 0 1 1 1 2
12 10 11 9 8 6 3 3 4 6 7 9 10 11 11 11 13 13 13 13 14 13 12 11 11 9 8 7 6 5 4 4 3 3 3 2 1 2 3 2 1 1 1 1 1 1 1 1 1
13 10 7 7 6 6 6 5 4 6 7 7 9 11 10 11 12 11 12 12 11 11 11 10 11 10 8 7 6 7 6 4 3 2 3 2 1 1 2 2 2 1 1 1 1 1 1 1 1
12 12 9 6 5 6 5 3 4 5 6 7 8 9 10 10 11 11 10 10 11 11 11 10 10 10 9 8 7 5 6 6 5 3 3 3 2 2 2 2 2 2 2 2 1 2 2 2 2
12 12 11 8 6 5 5 3 2 3 4 4 6 7 9 9 10 10 10 10 10 10 10 10 10 10 9 8 7 6 5 5 5 5 4 3 3 3 3 3 2 3 2 2 2 2 1 1 2
Wind_Direction
202 221 224 244 247 80 66 63 61 65 64 58 59 65 59 54 64 87 101 88 88 89 92 85 79 77 74 75 76 77 80 81 81 81 84 88 93 96 97 98 99 100 101 101 99 99 100 100 103
227 229 230 247 39 73 67 64 64 65 73 71 69 71 68 67 77 94 99 99 97 94 90 90 90 84 80 79 80 80 82 83 84 85 86 87 93 97 98 98 99 99 99 100 101 101 101 102 105
250 249 251 221 60 70 74 72 74 75 80 82 75 64 62 78 83 96 108 110 101 98 96 97 96 90 87 83 80 83 84 85 86 88 89 89 91 95 96 97 98 99 99 100 102 103 104 105 110
251 245 228 69 70 68 77 83 87 86 76 78 82 76 70 77 91 103 111 109 105 102 101 103 102 97 92 88 84 84 85 86 89 91 91 91 92 93 97 99 100 100 100 101 103 104 107 110 113
234 262 81 73 76 75 77 82 81 79 77 78 84 89 86 84 96 109 109 108 104 104 105 107 110 106 101 97 92 87 86 88 91 92 93 94 95 96 98 101 104 104 104 105 107 109 110 112 114
236 174 88 86 81 81 82 89 90 88 92 95 98 98 93 99 103 105 99 97 101 105 105 112 115 113 109 105 99 92 90 94 90 91 93 96 98 99 102 103 105 107 108 110 113 115 116 118 123
242 82 84 93 95 89 85 87 88 89 90 95 104 103 105 111 107 104 105 99 99 103 112 119 121 118 113 109 106 100 95 95 94 96 100 105 108 110 112 113 113 114 116 120 124 128 129 136 151
231 78 71 82 92 92 89 89 90 90 85 95 109 107 121 129 126 115 105 98 99 103 107 117 121 125 128 122 119 115 110 109 108 108 111 116 121 127 128 126 123 125 128 134 141 147 155 171 190
50 80 74 78 93 103 106 100 95 96 91 79 81 107 126 134 129 121 113 103 98 99 106 111 117 130 127 128 131 134 130 132 134 135 140 148 151 132 136 117 130 137 145 154 164 173 182 193 212
81 77 80 85 95 107 111 108 109 106 97 92 94 107 125 131 129 124 118 112 107 107 106 103 104 115 115 113 127 135 133 141 146 118 140 154 92 98 108 125 142 153 166 180 196 202 202 209 209
90 86 87 90 98 107 108 104 105 108 108 108 114 123 129 132 130 125 116 110 111 115 110 107 96 86 97 111 123 120 116 132 129 118 118 112 109 115 111 142 153 174 188 198 189 205 213 209 200
91 90 94 97 100 104 105 101 94 93 107 116 121 127 130 134 131 124 115 112 115 111 106 101 99 80 65 74 108 134 131 130 117 117 103 91 77 77 108 149 171 183 172 184 182 200 196 213 207
105 107 103 106 104 99 102 102 103 101 110 119 126 132 137 136 133 129 125 123 122 118 110 103 103 94 79 58 22 94 100 114 115 96 77 61 69 58 62 48 14 62 117 157 230 343 152 229 319
112 118 118 118 117 120 115 114 111 116 123 126 133 140 143 138 139 138 134 129 131 129 115 114 115 109 102 102 50 78 90 100 88 86 76 56 60 46 43 48 12 37 55 57 85 280 279 281 90
152 145 135 133 134 132 126 118 118 130 134 138 145 147 147 146 147 145 139 139 141 134 122 128 128 120 122 118 88 102 95 102 97 90 78 47 51 38 35 22 21 22 35 99 100 340 277 244 196
187 178 149 142 147 147 147 124 132 143 144 146 151 151 152 152 153 148 142 145 140 132 131 145 135 129 131 122 74 73 78 86 89 96 91 66 35 20 15 17 23 349 353 41 138 105 347 5 346
215 181 164 150 149 143 143 132 146 157 153 152 158 159 158 156 158 152 150 151 145 137 139 146 122 134 142 144 148 124 97 92 92 93 97 104 48 50 25 30 8 331 5 359 0 62 20 353 347
222 187 161 154 151 148 141 133 155 162 160 161 165 165 163 163 162 158 158 153 149 144 144 148 140 138 145 153 154 158 125 125 121 110 108 117 101 65 10 80 344 341 18 17 20 17 343 283 288
242 229 126 134 139 151 150 146 159 165 168 167 169 169 169 168 163 161 162 158 154 149 152 155 153 146 156 169 167 163 147 169 140 137 127 125 92 79 45 15 332 351 30 10 15 9 336 317 298
257 258 218 161 156 168 168 156 158 167 180 174 171 174 171 168 165 163 165 164 160 157 160 158 158 160 174 167 168 176 165 176 146 126 127 133 115 27 159 52 334 18 19 15 8 356 332 315 313
235 240 238 206 170 174 209 180 172 172 177 175 173 176 175 172 169 168 170 171 168 164 165 168 166 165 176 170 178 181 163 167 142 139 141 139 146 159 19 74 351 351 350 10 332 323 303 304 306
240 244 254 238 223 207 205 205 185 180 175 175 176 178 177 172 169 170 173 173 171 168 167 161 158 162 164 171 188 189 181 180 175 160 146 151 163 176 135 115 33 346 7 13 295 28 313 304 311
247 252 263 264 244 235 220 231 187 175 174 174 177 179 176 172 171 172 172 170 172 170 166 161 158 161 166 180 191 205 196 193 160 144 153 161 173 190 160 143 132 305 335 335 345 2 338 331 323
242 256 267 272 265 245 229 240 182 175 175 174 173 175 176 172 169 168 165 164 171 171 168 163 159 164 170 180 186 198 212 202 161 164 170 187 171 171 171 155 151 188 261 292 312 307 308 319 314
225 239 249 250 241 246 236 237 172 166 167 170 169 170 171 170 165 164 165 166 170 172 170 161 158 166 172 180 188 189 204 203 188 212 200 217 177 156 150 165 164 196 217 246 286 272 302 296 295
230 229 232 241 241 231 234 238 170 155 158 163 158 159 162 165 163 165 167 167 172 173 170 163 160 166 173 181 187 187 193 207 204 208 212 219 203 141 142 165 167 211 253 269 284 282 259 255 285
234 237 242 255 269 274 233 192 187 160 151 158 152 152 160 166 166 167 168 169 173 173 172 169 162 165 174 181 181 183 188 211 213 186 208 211 201 168 140 163 182 206 220 250 247 269 280 305 297
238 240 244 241 259 264 255 234 205 160 170 166 155 153 159 164 163 168 168 168 170 170 168 167 164 167 173 180 186 186 189 199 204 199 197 198 202 183 145 176 188 209 221 226 241 273 259 252 252
224 233 243 248 250 250 250 240 151 176 181 168 160 156 159 157 157 164 167 166 166 167 167 167 166 167 174 180 184 192 179 188 190 198 200 197 206 198 197 205 208 221 227 224 226 252 260 271 286
232 234 240 238 236 253 258 257 178 170 187 169 155 154 153 155 155 154 159 165 168 168 169 168 171 172 177 179 180 189 182 181 186 193 195 193 195 204 210 212 213 225 222 218 225 248 256 262 278